Main page
METAR-TAF:

METAR-TAF

Airports :

Kota, India

Kota Airport

latitude: 25-09-36N, longitude: 075-50-44E, elevation: 273 m

Current weather observation

The report was made 46 minutes ago, at 04:00 UTC
Wind 3 kt from the Northwest
Temperature 30°C
Humidity 79%
Pressure 1006 hPa
Visibility: 5000 m
Scattered clouds at a height of 3000 ft
Broken clouds at a height of 10000 ft
haze

METAR: VIKO 240400Z 32003KT 5000 HZ SCT030 BKN100 30/26 Q1006 NOSIG

Time: 10:16 (04:46 UTC)


TAF: missing

Weather observations and forecasts of more than 4000 airports (METAR and TAF reports).

The available stations are represented by yellow and red dots on the map.

Hover mouse over dot to see the name of the station.

Then click to see weather observations and forecasts.

To change the map : click on the green buttons with a black cross to zoom in, on the green button with a dash to zoom out, or on the green arrows for adjacent maps.


METAR-TAF: